Overview Statistics Trail Chart Weather Telemetry Raw packets
 

This is the latest recevied weather packets stored in our database for station/object W8KVG. If no packets are shown the sender has not sent any weather packets the latest 10 day(s).

<< 24 25 26 27 28 29 30 >>
Time Temp. Humidity Pressure Rain* Wind** Luminosity Snow
1777783562 2.22° C 91% 1015.4 hPa 0 mm - 0 W/m² -
1777783260 1.67° C 91% 1015.6 hPa 0 mm - 0 W/m² -
1777782955 2.22° C 91% 1015.5 hPa 0 mm - 0 W/m² -
1777782653 2.22° C 92% 1015.6 hPa 0 mm - 0 W/m² -
1777782350 2.22° C 92% 1015.8 hPa 0 mm - 0 W/m² -
1777782046 1.67° C 93% 1015.6 hPa 0 mm - 0 W/m² -
1777781742 1.67° C 93% 1015.6 hPa 0 mm - 0 W/m² -
1777781440 1.11° C 93% 1015.5 hPa 0 mm - 0 W/m² -
1777781137 1.11° C 92% 1015.6 hPa 0 mm - 0 W/m² -
1777780835 1.11° C 92% 1015.6 hPa 0 mm - 0 W/m² -
1777780531 1.11° C 91% 1015.6 hPa 0 mm - 0 W/m² -
1777780229 1.11° C 91% 1015.5 hPa 0 mm - 0 W/m² -
1777779926 1.11° C 90% 1015.8 hPa 0 mm - 0 W/m² -
1777779623 1.11° C 90% 1015.8 hPa 0 mm - 0 W/m² -
1777779320 1.11° C 90% 1015.5 hPa 0 mm - 0 W/m² -
1777779018 1.11° C 91% 1015.7 hPa 0 mm - 0 W/m² -
1777778716 1.11° C 90% 1015.6 hPa 0 mm - 0 W/m² -
1777778414 1.67° C 89% 1015.5 hPa 0 mm - 0 W/m² -
1777778112 1.67° C 87% 1015.6 hPa 0 mm - 0 W/m² -
1777777808 2.22° C 86% 1015.6 hPa 0 mm - 0 W/m² -
1777777504 2.78° C 86% 1015.6 hPa 0 mm - 0 W/m² -
1777777201 2.78° C 85% 1015.4 hPa 0 mm - 0 W/m² -
1777776898 2.78° C 83% 1015.7 hPa 0 mm - 0 W/m² -
1777776596 2.22° C 86% 1015.8 hPa 0 mm - 0 W/m² -
1777776292 2.22° C 86% 1015.6 hPa 0 mm - 0 W/m² -

* Rain latest hour (hover to see other rain measurements)
** Current wind speed in m/s (hover to see current wind gust speed)